Weather History for KI35 - February, 2014

Change the Weather History Date:

Monday, February 3, 2014

  Actual Average (KLOZ) Record (KLOZ)
Temperature  
Mean Temperature 34 °F 37 °F  
Max Temperature 37 °F 47 °F 68 °F (1962)
Min Temperature 32 °F 27 °F -10 °F (1965)
Degree Days  
Heating Degree Days 30 28  
Month to date heating degree days 84  
Since 1 July heating degree days 2647  
Cooling Degree Days 0 0  
Month to date cooling degree days 0  
Year to date cooling degree days 0  
Moisture  
Dew Point 33 °F    
Average Humidity 94    
Maximum Humidity 100    
Minimum Humidity 87    
Precipitation  
Precipitation 0.00 in 0.12 in 1.51 in (1990)
Month to date precipitation 0.38  
Year to date precipitation 3.92  
Sea Level Pressure  
Sea Level Pressure 30.11 in    
Wind  
Wind Speed 4 mph (NNE)    
Max Wind Speed 12 mph    
Max Gust Speed 22 mph    
Visibility 8 miles    
Events      
T = Trace of Precipitation, MM = Missing Value Source: NWS Daily Summary

Daily Weather History Graph

Daily Weather History Graph

Search for Another Location

Airport or City:

Trip Planner

Search our weather history database for the weather conditions in past years. The results will help you decide how hot, cold, wet, or windy it might be!

Date:

Astronomy

Feb. 03, 2014 Rise Set
Actual Time 7:33 AM EST 6:01 PM EST
Civil Twilight 7:06 AM EST 6:28 PM EST
Nautical Twilight 6:35 AM EST 6:59 PM EST
Astronomical Twilight 6:05 AM EST 7:29 PM EST
Moon 9:43 AM EST (2/3) 10:41 PM EST (2/3)
Length of Visible Light 11h 21m
Length of Day
10h 27m
Waxing Crescent, 19% of the Moon is Illuminated
Feb 3
Waxing Crescent
Feb 6
First Quarter
Feb 14
Full
Feb 22
Last Quarter
Mar 1
New

Hourly Weather History & Observations

Time (EST) Temp. Windchill Dew Point Humidity Pressure Visibility Wind Dir Wind Speed Gust Speed Precip Events Conditions
12:15 AM 35.6 °F 32.8 °F 35.6 °F 100% 29.96 in 3.0 mi SW 3.5 mph - N/A   Overcast
12:35 AM 37.4 °F - 35.6 °F 93% 29.96 in 7.0 mi Calm Calm - N/A   Overcast
12:55 AM 37.4 °F 34.9 °F 35.6 °F 93% 29.95 in 4.0 mi ESE 3.5 mph - N/A   Overcast
1:15 AM 37.4 °F 30.3 °F 35.6 °F 93% 29.97 in 3.0 mi NNW 10.4 mph - N/A   Overcast
1:35 AM 37.4 °F 32.8 °F 35.6 °F 93% 29.94 in 3.0 mi ENE 5.8 mph - N/A   Overcast
1:55 AM 37.4 °F 30.8 °F 35.6 °F 93% 29.94 in 3.0 mi ENE 9.2 mph - N/A   Overcast
2:15 AM 35.6 °F 30.7 °F 35.6 °F 100% 29.94 in 4.0 mi North 5.8 mph - N/A   Overcast
2:35 AM 35.6 °F 28.0 °F 33.8 °F 93% 29.95 in 4.0 mi North 10.4 mph 20.7 mph N/A   Overcast
2:55 AM 35.6 °F 29.9 °F 33.8 °F 93% 29.94 in 3.0 mi NE 6.9 mph - N/A   Overcast
3:15 AM 35.6 °F - 33.8 °F 93% 29.94 in 2.0 mi Calm Calm - N/A   Overcast
3:35 AM 35.6 °F - 33.8 °F 93% 29.93 in 3.0 mi Calm Calm - N/A   Overcast
3:55 AM 35.6 °F 30.7 °F 33.8 °F 93% 29.88 in 5.0 mi East 5.8 mph - N/A   Overcast
4:15 AM 35.6 °F 32.8 °F 33.8 °F 93% 29.89 in 7.0 mi NNE 3.5 mph - N/A   Overcast
4:35 AM 35.6 °F - 33.8 °F 93% 29.91 in 5.0 mi Calm Calm - N/A   Overcast
4:55 AM 35.6 °F 31.7 °F 32.0 °F 87% 29.90 in 7.0 mi ENE 4.6 mph - N/A   Overcast
5:15 AM 33.8 °F 28.6 °F 32.0 °F 93% 29.96 in 7.0 mi NW 5.8 mph - N/A   Overcast
5:35 AM 33.8 °F - 32.0 °F 93% 29.95 in 5.0 mi Calm Calm - N/A   Overcast
5:55 AM 33.8 °F 27.7 °F 32.0 °F 93% 29.89 in 7.0 mi East 6.9 mph - N/A   Overcast
6:15 AM 33.8 °F - 32.0 °F 93% 29.94 in 10.0 mi Calm Calm - N/A   Overcast
6:35 AM 33.8 °F 25.8 °F 32.0 °F 93% 30.00 in 10.0 mi NW 10.4 mph 19.6 mph N/A   Overcast
6:55 AM 33.8 °F 25.3 °F 32.0 °F 93% 30.02 in 10.0 mi NNW 11.5 mph 21.9 mph N/A   Overcast
7:15 AM 33.8 °F 26.4 °F 32.0 °F 93% 30.04 in 2.5 mi NNW 9.2 mph - N/A   Overcast
7:35 AM 32.0 °F 23.6 °F 32.0 °F 100% 30.05 in 2.0 mi NNW 10.4 mph - N/A   Overcast
7:55 AM 32.0 °F 27.5 °F 32.0 °F 100% 30.07 in 2.0 mi North 4.6 mph - N/A   Overcast
8:15 AM 32.0 °F 25.6 °F 32.0 °F 100% 30.09 in 1.2 mi North 6.9 mph - N/A   Overcast
8:35 AM 32.0 °F - 32.0 °F 100% 30.12 in 2.5 mi Calm Calm - N/A   Overcast
8:55 AM 32.0 °F 28.7 °F 32.0 °F 100% 30.13 in 2.5 mi NNE 3.5 mph - N/A   Overcast
9:15 AM 32.0 °F - 32.0 °F 100% 30.13 in 4.0 mi Calm Calm - N/A   Overcast
9:35 AM 33.8 °F 29.6 °F 32.0 °F 93% 30.14 in 10.0 mi NE 4.6 mph - N/A   Overcast
9:55 AM 33.8 °F 28.6 °F 32.0 °F 93% 30.15 in 10.0 mi NE 5.8 mph - N/A   Overcast
10:15 AM 33.8 °F - 32.0 °F 93% 30.15 in 10.0 mi Calm Calm - N/A   Overcast
10:35 AM 33.8 °F 30.8 °F 32.0 °F 93% 30.15 in 10.0 mi East 3.5 mph - N/A   Overcast
10:55 AM 33.8 °F 28.6 °F 32.0 °F 93% 30.16 in 10.0 mi East 5.8 mph - N/A   Overcast
11:15 AM 33.8 °F 29.6 °F 32.0 °F 93% 30.18 in 10.0 mi North 4.6 mph - N/A   Overcast
11:35 AM 33.8 °F 30.8 °F 32.0 °F 93% 30.18 in 10.0 mi NNW 3.5 mph - N/A   Overcast
11:55 AM 33.8 °F - 32.0 °F 93% 30.19 in 10.0 mi Calm Calm - N/A   Overcast
12:15 PM 33.8 °F 29.6 °F 32.0 °F 93% 30.19 in 10.0 mi North 4.6 mph - N/A   Overcast
12:35 PM 33.8 °F 30.8 °F 32.0 °F 93% 30.18 in 10.0 mi North 3.5 mph - N/A   Overcast
12:55 PM 33.8 °F 29.6 °F 32.0 °F 93% 30.18 in 10.0 mi North 4.6 mph - N/A   Overcast
1:15 PM 33.8 °F 27.0 °F 32.0 °F 93% 30.17 in 10.0 mi NNE 8.1 mph - N/A   Overcast
1:35 PM 33.8 °F 28.6 °F 32.0 °F 93% 30.17 in 10.0 mi North 5.8 mph - N/A   Overcast
1:55 PM 33.8 °F 28.6 °F 32.0 °F 93% 30.17 in 10.0 mi NNW 5.8 mph - N/A   Overcast
2:15 PM 33.8 °F 28.6 °F 32.0 °F 93% 30.17 in 10.0 mi NNE 5.8 mph - N/A   Overcast
2:35 PM 33.8 °F - 32.0 °F 93% 30.17 in 10.0 mi Calm Calm - N/A   Overcast
2:55 PM 33.8 °F 30.8 °F 32.0 °F 93% 30.18 in 10.0 mi NNE 3.5 mph - N/A   Overcast
3:15 PM 35.6 °F 32.8 °F 32.0 °F 87% 30.18 in 10.0 mi North 3.5 mph - N/A   Overcast
3:35 PM 35.6 °F 30.7 °F 32.0 °F 87% 30.18 in 10.0 mi NNE 5.8 mph - N/A   Overcast
3:55 PM 33.8 °F 30.8 °F 32.0 °F 93% 30.19 in 10.0 mi NNE 3.5 mph - N/A   Overcast
4:15 PM 33.8 °F - 32.0 °F 93% 30.19 in 10.0 mi Calm Calm - N/A   Overcast
4:35 PM 33.8 °F 29.6 °F 32.0 °F 93% 30.21 in 10.0 mi North 4.6 mph - N/A   Overcast
4:55 PM 33.8 °F 29.6 °F 32.0 °F 93% 30.21 in 10.0 mi NNE 4.6 mph - N/A   Overcast
5:15 PM 33.8 °F 30.8 °F 32.0 °F 93% 30.20 in 10.0 mi NE 3.5 mph - N/A   Overcast
5:35 PM 33.8 °F 30.8 °F 32.0 °F 93% 30.21 in 10.0 mi NE 3.5 mph - N/A   Overcast
5:55 PM 33.8 °F 28.6 °F 32.0 °F 93% 30.20 in 10.0 mi NE 5.8 mph - N/A   Overcast
6:15 PM 33.8 °F 28.6 °F 32.0 °F 93% 30.20 in 10.0 mi NE 5.8 mph - N/A   Overcast
6:35 PM 33.8 °F 28.6 °F 32.0 °F 93% 30.21 in 10.0 mi NE 5.8 mph - N/A   Overcast
6:55 PM 33.8 °F 28.6 °F 32.0 °F 93% 30.22 in 10.0 mi NE 5.8 mph - N/A   Overcast
7:15 PM 33.8 °F 30.8 °F 32.0 °F 93% 30.22 in 10.0 mi ENE 3.5 mph - N/A   Overcast
7:35 PM 33.8 °F 30.8 °F 32.0 °F 93% 30.23 in 10.0 mi East 3.5 mph - N/A   Overcast
7:55 PM 33.8 °F - 32.0 °F 93% 30.24 in 10.0 mi Calm Calm - N/A   Overcast
8:15 PM 33.8 °F 26.4 °F 32.0 °F 93% 30.22 in 10.0 mi East 9.2 mph - N/A   Overcast
8:35 PM 33.8 °F - 32.0 °F 93% 30.23 in 10.0 mi Calm Calm - N/A   Overcast
8:55 PM 33.8 °F 26.4 °F 32.0 °F 93% 30.24 in 10.0 mi East 9.2 mph - N/A   Overcast
9:15 PM 33.8 °F 26.4 °F 32.0 °F 93% 30.25 in 10.0 mi East 9.2 mph - N/A   Overcast
9:35 PM 33.8 °F - 32.0 °F 93% 30.25 in 10.0 mi Calm Calm - N/A   Overcast
9:55 PM 33.8 °F - 32.0 °F 93% 30.23 in 10.0 mi Calm Calm - N/A   Overcast
10:15 PM 33.8 °F - 32.0 °F 93% 30.24 in 10.0 mi Calm Calm - N/A   Overcast
10:35 PM 33.8 °F 29.6 °F 32.0 °F 93% 30.21 in 10.0 mi NE 4.6 mph - N/A   Overcast
10:55 PM 33.8 °F 29.6 °F 32.0 °F 93% 30.21 in 10.0 mi ENE 4.6 mph - N/A   Overcast
11:15 PM 33.8 °F 29.6 °F 32.0 °F 93% 30.21 in 10.0 mi NE 4.6 mph - N/A   Overcast
11:35 PM 33.8 °F 30.8 °F 32.0 °F 93% 30.22 in 10.0 mi NE 3.5 mph - N/A   Overcast
11:55 PM 32.0 °F 27.5 °F 32.0 °F 100% 30.22 in 10.0 mi NNE 4.6 mph - N/A   Overcast